Glenwood, MN

9:58 PM CDT on August 22, 2017 (GMT -0500)
Glenwood Municipal

Weather History for KGHW - November, 2012

Change the Weather History Date:

Saturday, November 3, 2012

  Actual Average Record
Temperature  
Mean Temperature 34 °F -  
Max Temperature 37 °F 44 °F 75 °F (2008)
Min Temperature 30 °F 26 °F 0 °F (1951)
Degree Days  
Heating Degree Days 32    
Moisture  
Dew Point 30 °F    
Average Humidity 85    
Maximum Humidity 100    
Minimum Humidity 75    
Precipitation  
Precipitation 0.00 in - - ()
Sea Level Pressure  
Sea Level Pressure 30.18 in    
Wind  
Wind Speed 2 mph (ESE)    
Max Wind Speed 7 mph    
Max Gust Speed -    
Visibility 10 miles    
Events Snow    
Averages and records for this station are not official NWS values.
T = Trace of Precipitation, MM = Missing Value Source: NWS Daily Summary

Daily Weather History Graph

Daily Weather History Graph

Search for Another Location

Airport or City:

Trip Planner

Search our weather history database for the weather conditions in past years. The results will help you decide how hot, cold, wet, or windy it might be!

Date:

Astronomy

Nov. 03, 2012 Rise Set
Actual Time 8:04 AM CDT 6:04 PM CDT
Civil Twilight 7:33 AM CDT 6:35 PM CDT
Nautical Twilight 6:58 AM CDT 7:10 PM CDT
Astronomical Twilight 6:23 AM CDT 7:45 PM CDT
Moon 9:41 PM CDT (11/3) 12:14 PM CDT (11/3)
Length of Visible Light 11h 02m
Length of Day
9h 59m
Waning Gibbous, 80% of the Moon is Illuminated
Nov 3
Waning Gibbous
Nov 6
Last Quarter
Nov 13
New
Nov 20
First Quarter
Nov 28
Full

Hourly Weather History & Observations

Time (CDT) Temp. Windchill Dew Point Humidity Pressure Visibility Wind Dir Wind Speed Gust Speed Precip Events Conditions
12:14 AM 33.8 °F - 26.6 °F 75% 30.15 in 10.0 mi Calm Calm - N/A   Overcast
12:33 AM 33.8 °F 29.6 °F 26.6 °F 75% 30.15 in 10.0 mi ESE 4.6 mph - N/A   Overcast
12:53 AM 33.8 °F - 26.6 °F 75% 30.15 in 10.0 mi Calm Calm - N/A   Overcast
1:14 AM 33.8 °F - 26.6 °F 75% 30.16 in 10.0 mi Calm Calm - N/A   Overcast
1:33 AM 33.8 °F - 26.6 °F 75% 30.16 in 10.0 mi Calm Calm - N/A   Mostly Cloudy
1:53 AM 33.8 °F - 26.6 °F 75% 30.15 in 10.0 mi Calm Calm - N/A   Overcast
2:13 AM 33.8 °F - 26.6 °F 75% 30.15 in 10.0 mi Calm Calm - N/A   Mostly Cloudy
2:33 AM 32.0 °F - 26.6 °F 80% 30.15 in 10.0 mi Calm Calm - N/A   Mostly Cloudy
2:53 AM 32.0 °F - 26.6 °F 80% 30.15 in 10.0 mi Calm Calm - N/A   Mostly Cloudy
3:13 AM 32.0 °F - 26.6 °F 80% 30.15 in 10.0 mi Calm Calm - N/A   Overcast
3:33 AM 33.8 °F - 26.6 °F 75% 30.15 in 10.0 mi Calm Calm - N/A   Overcast
3:54 AM 33.8 °F - 26.6 °F 75% 30.15 in 10.0 mi Calm Calm - N/A   Overcast
4:13 AM 33.8 °F - 26.6 °F 75% 30.15 in 10.0 mi Calm Calm - N/A   Mostly Cloudy
4:54 AM 32.0 °F - 26.6 °F 80% 30.16 in 7.0 mi Calm Calm - N/A Snow Light Snow
5:13 AM 32.0 °F 27.5 °F 28.4 °F 87% 30.16 in 7.0 mi SSW 4.6 mph - N/A Snow Light Snow
5:33 AM 30.2 °F - 28.4 °F 93% 30.16 in 10.0 mi Calm Calm - N/A   Mostly Cloudy
5:54 AM 32.0 °F 27.5 °F 28.4 °F 87% 30.16 in 10.0 mi SSE 4.6 mph - N/A   Mostly Cloudy
6:13 AM 32.0 °F - 30.2 °F 93% 30.16 in 10.0 mi Calm Calm - N/A   Mostly Cloudy
6:33 AM 32.0 °F - 30.2 °F 93% 30.16 in 10.0 mi Calm Calm - N/A   Overcast
6:53 AM 32.0 °F 27.5 °F 30.2 °F 93% 30.16 in 10.0 mi ESE 4.6 mph - N/A   Overcast
7:13 AM 30.2 °F - 28.4 °F 93% 30.16 in 10.0 mi Calm Calm - N/A   Overcast
7:33 AM 30.2 °F - 28.4 °F 93% 30.17 in 10.0 mi Calm Calm - N/A   Overcast
7:53 AM 30.2 °F - 30.2 °F 100% 30.17 in 10.0 mi Calm Calm - N/A   Overcast
8:13 AM 30.2 °F - 30.2 °F 100% 30.17 in 10.0 mi Calm Calm - N/A   Overcast
8:33 AM 30.2 °F - 30.2 °F 100% 30.18 in 10.0 mi Calm Calm - N/A   Overcast
8:53 AM 32.0 °F 27.5 °F 30.2 °F 93% 30.18 in 10.0 mi ESE 4.6 mph - N/A   Overcast
9:13 AM 32.0 °F 27.5 °F 30.2 °F 93% 30.18 in 10.0 mi ESE 4.6 mph - N/A   Mostly Cloudy
9:34 AM 32.0 °F 26.4 °F 30.2 °F 93% 30.19 in 10.0 mi East 5.8 mph - N/A   Overcast
9:53 AM 32.0 °F 28.7 °F 30.2 °F 93% 30.19 in 10.0 mi ESE 3.5 mph - N/A   Overcast
10:13 AM 33.8 °F 29.6 °F 30.2 °F 87% 30.19 in 10.0 mi SE 4.6 mph - N/A   Overcast
10:33 AM 33.8 °F 29.6 °F 30.2 °F 87% 30.19 in 10.0 mi SE 4.6 mph - N/A   Overcast
10:53 AM 33.8 °F 29.6 °F 30.2 °F 87% 30.19 in 10.0 mi SSE 4.6 mph - N/A   Overcast
11:13 AM 33.8 °F 30.8 °F 30.2 °F 87% 30.19 in 10.0 mi SE 3.5 mph - N/A   Overcast
11:34 AM 35.6 °F 31.7 °F 30.2 °F 81% 30.19 in 10.0 mi SE 4.6 mph - N/A   Overcast
11:53 AM 35.6 °F 30.7 °F 30.2 °F 81% 30.19 in 10.0 mi SE 5.8 mph - N/A   Overcast
12:13 PM 35.6 °F 31.7 °F 30.2 °F 81% 30.19 in 10.0 mi SE 4.6 mph - N/A   Overcast
12:34 PM 35.6 °F 30.7 °F 30.2 °F 81% 30.19 in 10.0 mi SE 5.8 mph - N/A   Overcast
12:53 PM 35.6 °F 31.7 °F 30.2 °F 81% 30.18 in 10.0 mi SE 4.6 mph - N/A   Overcast
1:13 PM 35.6 °F 31.7 °F 30.2 °F 81% 30.18 in 10.0 mi SSE 4.6 mph - N/A   Overcast
1:34 PM 37.4 °F 34.9 °F 30.2 °F 75% 30.18 in 10.0 mi SE 3.5 mph - N/A   Overcast
1:53 PM 37.4 °F 34.9 °F 30.2 °F 75% 30.18 in 10.0 mi ESE 3.5 mph - N/A   Overcast
2:13 PM 37.4 °F 33.8 °F 30.2 °F 75% 30.18 in 10.0 mi ESE 4.6 mph - N/A   Overcast
2:34 PM 37.4 °F 33.8 °F 32.0 °F 81% 30.18 in 10.0 mi East 4.6 mph - N/A   Overcast
2:53 PM 37.4 °F 33.8 °F 32.0 °F 81% 30.18 in 10.0 mi ESE 4.6 mph - N/A   Overcast
3:13 PM 37.4 °F 32.8 °F 32.0 °F 81% 30.17 in 10.0 mi East 5.8 mph - N/A   Overcast
3:33 PM 37.4 °F 32.8 °F 32.0 °F 81% 30.17 in 10.0 mi East 5.8 mph - N/A   Overcast
3:53 PM 37.4 °F 32.1 °F 33.8 °F 87% 30.17 in 10.0 mi East 6.9 mph - N/A   Overcast
4:13 PM 37.4 °F 32.1 °F 32.0 °F 81% 30.17 in 10.0 mi ESE 6.9 mph - N/A   Overcast
4:33 PM 35.6 °F 29.9 °F 32.0 °F 87% 30.17 in 10.0 mi ESE 6.9 mph - N/A   Overcast
4:53 PM 35.6 °F 29.9 °F 32.0 °F 87% 30.17 in 10.0 mi ESE 6.9 mph - N/A   Overcast
5:13 PM 35.6 °F 29.9 °F 32.0 °F 87% 30.17 in 10.0 mi East 6.9 mph - N/A   Overcast
5:33 PM 35.6 °F 29.9 °F 32.0 °F 87% 30.17 in 10.0 mi East 6.9 mph - N/A   Overcast
5:53 PM 35.6 °F 30.7 °F 32.0 °F 87% 30.17 in 10.0 mi East 5.8 mph - N/A   Overcast
6:13 PM 35.6 °F 30.7 °F 32.0 °F 87% 30.17 in 10.0 mi East 5.8 mph - N/A   Overcast
6:33 PM 35.6 °F 30.7 °F 32.0 °F 87% 30.18 in 10.0 mi East 5.8 mph - N/A   Overcast
6:53 PM 35.6 °F 31.7 °F 32.0 °F 87% 30.18 in 10.0 mi East 4.6 mph - N/A   Overcast
7:13 PM 35.6 °F 31.7 °F 32.0 °F 87% 30.19 in 10.0 mi East 4.6 mph - N/A   Overcast
7:33 PM 35.6 °F 32.8 °F 32.0 °F 87% 30.19 in 10.0 mi East 3.5 mph - N/A   Overcast
7:53 PM 35.6 °F 31.7 °F 32.0 °F 87% 30.19 in 10.0 mi East 4.6 mph - N/A   Light Drizzle
8:13 PM 35.6 °F 32.8 °F 32.0 °F 87% 30.19 in 7.0 mi ENE 3.5 mph - N/A   Light Drizzle
8:33 PM 33.8 °F 29.6 °F 32.0 °F 93% 30.19 in 10.0 mi ENE 4.6 mph - N/A   Mostly Cloudy
8:53 PM 33.8 °F 27.7 °F 30.2 °F 87% 30.19 in 10.0 mi ENE 6.9 mph - N/A   Overcast
9:13 PM 33.8 °F 27.7 °F 30.2 °F 87% 30.19 in 10.0 mi ENE 6.9 mph - N/A   Overcast
9:33 PM 35.6 °F 31.7 °F 32.0 °F 87% 30.20 in 10.0 mi ENE 4.6 mph - N/A   Overcast
9:53 PM 35.6 °F 31.7 °F 32.0 °F 87% 30.20 in 10.0 mi ENE 4.6 mph - N/A   Overcast
10:13 PM 35.6 °F 32.8 °F 32.0 °F 87% 30.21 in 10.0 mi ENE 3.5 mph - N/A   Overcast
10:33 PM 33.8 °F 29.6 °F 30.2 °F 87% 30.20 in 10.0 mi ENE 4.6 mph - N/A   Overcast
10:53 PM 33.8 °F 29.6 °F 30.2 °F 87% 30.20 in 10.0 mi ENE 4.6 mph - N/A   Overcast
11:13 PM 33.8 °F 29.6 °F 30.2 °F 87% 30.20 in 10.0 mi ENE 4.6 mph - N/A   Overcast
11:33 PM 33.8 °F 29.6 °F 30.2 °F 87% 30.20 in 10.0 mi ENE 4.6 mph - N/A   Overcast
11:53 PM 33.8 °F 29.6 °F 30.2 °F 87% 30.20 in 10.0 mi ENE 4.6 mph - N/A   Overcast